Theta_e
309 310 310 310 310 310 310 310 310 310 310 310 310 310 310 310 310 310 312 311 312 313 314 313 314 314 315 318 316 315 320 320 319 319 318 317 317 315 314 317 316 317 318 317 314
310 310 310 310 309 309 309 309 309 309 310 310 311 311 311 311 310 313 312 310 312 313 313 314 315 315 318 318 319 320 320 318 318 317 317 316 316 317 316 317 318 317 316 313 313
311 311 311 310 310 310 310 310 309 308 308 307 308 310 311 311 313 311 314 311 312 313 313 312 314 316 317 318 319 319 319 318 316 315 314 315 316 316 317 317 318 318 317 317 314
313 313 313 313 313 313 313 313 312 311 310 309 308 305 310 311 314 309 314 313 312 313 312 313 315 316 318 318 318 319 318 318 317 315 316 316 316 316 316 317 317 317 317 316 316
314 314 314 315 316 317 317 316 315 313 312 310 309 307 309 311 314 311 312 313 312 312 313 315 315 316 317 316 315 318 317 317 317 316 316 316 317 317 317 316 316 316 314 314 315
314 315 316 317 318 319 319 319 317 317 315 312 308 307 310 309 309 311 311 312 313 312 312 313 315 315 315 315 315 314 315 315 314 315 315 315 315 313 315 315 315 314 314 314 314
315 316 317 319 320 321 321 320 319 317 316 312 308 307 310 313 309 311 313 314 313 312 312 311 311 314 314 314 313 314 314 315 314 313 314 314 315 315 315 314 314 314 314 314 313
317 318 320 321 321 322 322 320 319 314 312 309 308 308 310 307 308 309 311 311 312 312 311 310 310 313 313 312 313 313 312 314 314 311 312 314 314 315 314 312 313 314 314 314 314
318 320 320 321 322 323 322 319 313 312 310 307 310 308 310 308 309 309 310 310 309 309 309 309 311 313 312 313 314 313 314 314 313 311 312 314 314 315 313 312 313 313 314 314 314
319 320 321 322 322 323 321 316 310 313 313 313 311 310 309 310 310 309 309 308 310 311 312 312 312 313 311 313 315 316 314 313 313 313 311 311 312 312 313 312 312 313 313 313 313
320 321 322 322 323 322 320 311 316 317 312 316 315 310 310 309 310 308 307 309 310 311 313 312 313 314 315 314 314 313 313 313 313 313 312 313 313 313 313 312 313 313 313 314 313
321 322 323 323 323 321 317 311 309 309 317 312 311 310 308 310 313 309 308 311 311 313 310 312 314 314 312 310 311 312 313 314 314 313 310 313 312 312 313 313 313 313 314 313 314
321 321 322 322 322 320 315 312 309 308 316 315 310 309 309 310 314 312 309 310 312 312 311 315 317 311 311 312 312 313 312 313 314 313 311 311 315 314 315 312 313 313 312 312 311
321 321 320 321 322 319 314 315 308 308 323 319 311 308 307 307 308 306 306 309 310 313 311 312 311 310 310 311 312 314 313 311 311 312 316 311 318 317 317 315 315 314 313 311 310
323 323 322 321 321 319 316 312 308 306 329 314 308 308 308 308 309 308 305 309 311 311 311 314 310 310 312 312 310 313 309 310 310 312 312 315 314 318 312 315 314 312 310 310 309
320 321 321 321 321 321 317 314 311 324 330 319 308 310 310 309 308 308 309 308 307 309 309 310 307 309 311 309 309 308 310 310 310 311 318 318 316 318 316 313 313 311 310 310 309
319 320 320 320 320 320 318 318 325 327 322 321 312 309 309 309 310 309 311 311 318 320 318 316 316 310 307 310 308 309 312 322 325 322 323 312 316 316 316 313 311 311 310 308 306
316 316 317 318 319 317 318 321 326 322 322 320 313 311 319 312 314 311 312 318 311 315 317 317 318 311 309 312 317 315 315 322 328 325 324 321 322 320 315 312 309 309 306 305 303
308 307 308 312 318 316 318 325 323 322 320 321 320 321 322 317 317 316 316 319 319 311 318 319 318 310 307 309 311 312 312 312 315 320 320 319 318 316 312 311 309 308 307 305 303
306 306 308 309 316 316 318 318 320 319 318 319 323 321 322 321 320 317 318 312 313 310 309 316 321 318 313 306 307 310 310 315 316 322 323 318 317 315 314 312 309 308 305 303 301
304 307 305 311 315 315 317 316 316 316 318 319 319 320 318 319 318 317 316 316 314 308 309 315 316 317 313 312 316 310 310 311 313 319 321 318 315 313 312 308 306 305 301 299 298
305 307 307 312 315 314 314 312 311 313 312 317 316 318 318 317 316 315 316 315 313 313 315 314 316 318 316 314 312 313 314 316 319 318 315 316 317 313 310 304 302 300 297 296 294
306 304 307 311 312 313 311 312 311 311 311 311 313 315 315 314 314 314 312 310 310 313 315 314 317 319 318 313 310 314 314 313 315 314 318 320 319 311 309 307 298 298 295 294 293
301 303 305 308 309 308 309 309 310 308 310 310 311 312 312 311 311 312 312 311 307 306 306 310 311 316 318 315 313 314 313 313 312 314 314 313 312 309 306 305 297 295 294 293 293
298 300 301 307 307 308 306 306 307 307 307 306 308 309 309 309 308 309 308 305 303 300 302 306 310 309 309 309 305 306 306 304 305 306 307 305 305 304 303 297 294 292 290 291 293
297 298 298 299 300 303 305 306 305 305 304 304 304 304 303 306 306 306 302 303 304 299 299 299 305 302 302 302 302 302 301 301 300 300 300 300 300 297 295 293 292 291 289 290 291
292 293 296 296 297 300 301 303 300 301 296 298 298 298 298 299 299 298 298 297 298 299 298 298 300 300 301 299 297 298 299 299 298 298 297 297 297 295 292 290 290 290 289 290 291
Wind_Speed
4 5 5 5 5 5 5 5 5 6 6 6 6 7 9 12 14 10 7 6 6 12 10 12 6 5 3 3 2 2 4 5 4 5 2 4 4 3 3 8 5 8 6 2 6
5 5 6 6 7 7 8 9 9 10 10 10 9 9 11 14 12 11 10 7 7 16 14 14 7 7 3 3 3 5 4 5 4 5 5 4 5 7 6 12 15 13 15 10 7
6 6 6 7 8 8 9 11 12 13 13 13 11 10 10 12 5 2 2 8 10 16 10 8 8 4 4 3 6 4 6 6 7 12 7 6 8 5 10 14 17 15 10 10 14
6 7 8 8 9 9 10 11 13 14 14 14 12 10 8 4 6 2 3 8 13 16 12 9 7 5 4 6 5 6 12 11 4 3 4 7 6 10 13 23 23 19 17 13 13
5 6 8 9 10 11 11 14 13 15 15 14 12 8 3 3 7 6 4 8 15 15 11 8 8 6 7 5 4 9 11 10 9 8 10 12 20 17 19 24 24 20 15 17 17
5 6 8 9 10 11 13 15 16 17 17 16 11 5 2 8 6 7 6 11 13 15 9 8 6 5 3 5 8 3 8 13 10 13 11 10 25 2 14 14 15 13 16 15 15
4 5 8 9 11 12 15 16 17 17 15 14 8 4 4 13 5 5 6 7 11 11 6 7 4 5 3 3 2 5 12 15 14 8 8 9 13 15 21 13 16 15 14 13 13
4 5 7 10 11 13 16 17 17 13 11 7 4 5 7 4 4 6 9 4 7 9 6 2 6 2 3 1 3 6 4 9 3 6 2 9 17 20 6 6 13 20 21 20 22
5 5 6 8 11 13 16 17 8 7 7 6 4 2 7 4 1 3 6 3 6 5 4 7 4 2 2 6 7 6 11 13 10 5 3 11 12 13 8 12 25 25 23 22 21
5 5 7 8 11 14 15 12 3 3 4 6 4 2 4 1 1 3 5 11 4 7 4 2 2 6 2 7 11 12 10 10 10 7 8 13 20 21 25 21 25 26 25 19 17
7 7 8 8 10 14 13 3 3 1 1 3 5 5 5 2 4 2 3 5 4 3 8 3 8 11 18 18 18 14 16 21 21 19 19 21 21 21 23 23 27 25 22 14 12
9 8 8 9 10 11 5 3 2 0 7 9 13 8 4 3 3 2 8 7 5 7 5 4 12 16 7 6 11 16 19 21 20 15 5 18 24 23 23 21 22 22 18 14 13
11 10 9 9 11 3 3 4 1 3 4 5 2 3 2 4 4 1 6 5 5 7 10 17 12 4 10 14 16 16 14 18 22 19 15 12 13 2 10 7 15 6 12 10 7
14 13 11 10 7 3 2 1 3 3 4 3 0 0 1 2 3 2 2 1 2 5 6 9 4 6 4 10 10 15 11 15 14 6 9 8 11 10 11 12 11 8 10 12 12
13 12 12 12 2 3 4 3 1 3 6 2 1 1 1 1 5 4 1 2 3 3 3 4 1 2 6 8 7 5 2 3 5 9 10 6 7 2 3 5 7 13 12 11 10
7 7 7 8 11 5 6 4 1 1 7 1 3 3 3 2 3 5 4 4 2 3 3 11 2 4 4 3 5 1 4 4 2 4 9 10 9 2 2 3 4 2 8 10 12
8 9 9 8 3 13 9 2 2 5 0 4 3 2 1 4 4 2 5 7 5 4 9 12 14 4 4 5 3 3 5 7 6 5 10 4 4 7 9 6 5 3 12 18 17
6 6 8 8 5 13 6 1 9 8 5 2 2 4 4 4 2 3 3 5 1 4 7 7 15 9 8 8 7 10 11 7 6 10 16 11 9 5 7 3 12 18 17 19 21
3 4 4 9 8 8 3 7 2 6 3 3 0 7 8 2 3 3 4 11 6 12 7 6 12 1 5 5 4 4 8 3 2 3 7 11 19 15 5 9 15 16 17 18 17
6 1 4 6 13 5 2 7 6 5 3 1 5 6 5 3 4 3 6 3 2 6 3 3 10 10 7 2 4 7 3 3 3 5 9 13 21 14 11 7 8 11 12 14 16
6 2 2 12 16 3 5 6 4 6 9 7 12 15 16 12 10 14 10 4 6 2 5 4 7 7 2 7 14 5 6 6 4 5 6 13 15 2 9 6 6 7 9 11 11
6 3 5 20 4 3 8 5 1 2 1 5 2 8 9 6 11 11 13 9 3 1 9 12 5 10 22 17 7 6 11 14 8 9 9 13 19 18 8 10 7 5 4 4 6
4 1 5 9 6 7 3 3 4 4 6 3 4 7 4 4 4 9 10 4 8 2 2 4 4 6 7 7 2 5 8 13 12 4 16 17 4 3 8 8 9 4 3 4 6
3 3 1 2 1 5 8 7 6 2 6 7 6 6 4 8 8 8 6 2 2 4 6 2 3 6 10 12 13 10 8 8 5 7 16 17 24 20 20 23 9 5 4 5 7
1 3 0 6 8 8 7 2 5 4 1 1 1 4 2 3 2 7 4 3 4 5 3 0 10 14 16 11 8 9 8 13 15 14 8 15 22 23 21 12 10 7 9 10 8
3 3 2 2 2 6 10 9 15 12 3 7 9 7 2 6 8 10 3 3 7 2 2 1 6 5 8 9 14 18 19 23 22 23 25 25 27 4 1 6 11 13 12 11 8
1 2 1 3 4 5 5 6 5 8 2 1 4 3 2 4 3 2 4 4 5 4 3 3 3 3 10 11 14 13 21 20 22 25 23 20 11 4 1 7 12 15 16 15 13
Wind_Direction
6 7 3 358 357 348 340 332 324 319 318 318 323 325 326 323 314 290 242 228 206 192 174 159 149 140 133 118 127 187 224 246 244 196 217 184 242 174 291 271 225 206 248 310 149
0 355 355 356 348 339 335 329 321 315 313 312 317 322 326 324 314 259 258 214 197 184 168 169 169 161 164 152 178 221 232 249 234 223 250 253 245 288 256 260 257 250 245 234 200
9 6 358 350 349 345 339 335 328 322 318 313 311 312 322 326 296 241 174 193 184 181 187 170 144 171 207 190 195 184 242 244 233 243 260 273 264 250 264 272 262 270 277 237 223
359 0 359 1 356 349 343 336 328 320 318 315 315 310 311 321 297 207 207 189 184 181 160 143 156 182 224 219 195 243 243 245 269 224 250 266 292 256 242 259 274 285 284 276 242
352 354 358 354 354 350 344 332 323 317 312 307 307 310 294 220 249 250 235 190 183 184 188 173 182 186 224 219 204 238 261 259 257 264 264 277 265 267 263 263 276 280 273 271 264
340 348 349 351 349 348 340 332 326 319 313 304 297 280 200 253 247 250 231 189 191 184 187 186 226 213 248 233 223 342 281 284 277 255 243 246 271 263 266 262 277 273 275 272 268
327 338 341 346 348 345 341 333 325 319 312 303 280 216 239 259 238 228 190 199 202 196 180 198 160 204 157 245 257 302 297 295 264 265 231 215 269 235 260 282 282 286 282 280 263
307 327 337 344 348 346 343 333 325 322 326 316 210 170 256 278 276 248 233 211 196 200 217 197 187 164 238 4 269 276 260 285 295 179 173 200 270 285 305 295 289 293 290 284 278
293 316 331 340 342 345 341 331 327 350 14 82 117 190 263 315 294 249 197 160 139 125 109 129 152 199 174 242 271 231 268 257 291 231 135 206 277 276 271 295 287 287 283 280 286
278 300 318 333 341 345 338 328 322 14 63 83 100 212 219 296 147 114 162 153 127 133 112 151 154 214 195 213 251 274 260 254 260 284 251 271 269 282 287 285 279 280 277 284 292
273 288 307 325 337 343 344 330 270 209 341 242 250 260 267 222 157 106 139 125 118 169 198 161 211 213 233 229 250 286 274 279 276 283 297 289 293 291 285 282 273 276 281 295 291
271 283 302 313 326 338 345 59 96 118 292 256 258 271 337 331 304 118 159 184 187 210 139 184 235 237 279 292 254 262 272 275 281 278 290 294 300 286 283 270 277 277 294 295 307
267 272 282 302 319 324 95 147 187 176 255 289 217 234 300 202 224 178 204 152 200 192 209 248 266 282 219 246 264 255 266 278 283 304 286 305 283 276 284 288 270 305 282 321 339
260 263 266 275 291 213 218 162 188 195 267 255 127 117 134 140 82 317 156 149 148 270 232 256 307 269 269 258 264 280 288 274 282 294 289 4 296 308 294 283 317 320 30 47 60
247 254 249 224 208 211 166 150 203 250 281 70 133 259 171 160 132 42 322 139 226 173 211 263 194 165 219 239 194 261 8 276 273 269 300 251 269 10 298 292 69 46 72 47 49
218 217 213 207 221 199 172 148 77 109 240 138 158 164 163 183 171 151 168 122 132 202 219 273 305 255 262 200 206 99 277 257 220 268 262 263 225 142 112 110 48 77 54 59 40
208 193 194 195 207 190 170 174 195 207 288 185 169 171 266 179 184 253 183 179 192 265 281 295 270 217 205 237 165 226 309 319 280 228 274 97 276 276 295 223 295 35 72 48 41
197 191 190 202 223 178 157 118 224 170 216 4 147 150 216 188 206 189 253 271 195 222 300 289 296 184 174 214 264 241 235 211 277 276 290 306 257 289 238 329 44 46 42 35 33
192 226 233 210 174 169 82 230 237 183 205 176 10 278 268 202 276 237 243 279 271 187 214 256 256 221 213 193 229 167 208 208 208 315 277 256 267 288 339 79 45 39 34 30 25
160 171 234 200 176 161 158 214 235 241 149 211 242 185 230 161 269 251 238 133 234 198 291 307 282 233 260 162 200 214 121 201 121 227 239 267 288 283 254 71 45 26 26 18 13
153 144 196 178 165 151 238 242 252 221 199 233 250 255 255 270 251 271 261 250 244 135 92 50 239 264 167 206 244 214 223 224 294 208 250 279 278 26 98 88 46 37 26 17 20
150 189 163 166 179 195 231 201 205 236 16 231 276 253 253 264 269 259 252 240 134 272 277 256 229 257 265 273 272 280 260 244 241 248 234 241 251 256 106 107 53 65 80 39 20
153 113 173 198 206 209 199 210 235 203 224 201 247 215 202 241 273 245 259 68 34 39 346 21 234 264 260 244 113 223 259 258 271 258 253 258 250 342 279 307 47 38 31 9 346
130 143 218 234 238 202 228 243 226 164 225 225 245 237 243 265 236 265 267 99 73 37 353 32 260 275 269 291 328 272 252 258 263 258 284 272 287 296 297 312 11 5 347 320 316
161 185 357 187 221 207 209 223 184 189 226 53 212 169 128 256 277 247 261 321 68 22 79 246 268 280 280 294 289 270 279 270 267 274 264 282 278 275 291 307 330 334 335 317 302
158 162 111 124 130 173 211 235 242 235 245 233 259 291 275 247 248 282 268 209 273 58 112 35 270 292 277 267 264 283 275 267 270 270 268 267 269 326 69 322 314 319 327 313 290
145 85 87 141 163 177 201 211 165 145 63 125 132 124 224 248 227 239 234 264 262 241 213 248 244 252 264 289 308 279 257 273 278 277 275 275 298 146 255 321 313 309 315 308 301